User: anonymous   Login
Location: Fountain Hills
(33.6120°N, 111.7170°W)
Time: 00:43:04
(UTC-07:00)
Language:

Hamsat - Orbit

View from above orbital plane
View from above orbital plane
View from above satellite
View from above satellite

Ground track
Ground track

The orbit data is extracted from the following two-line orbital elements,

1 28650U 05017B   16042.86114251  .00001710  00000-0  19095-3 0  9991
2 28650  97.5964  29.8388 0022907 320.9873  38.9691 14.88056085583088
Epoch (UTC): 11 February 2016 20:40:02
Eccentricity: 0.0022907
inclination: 97.5964°
perigee height: 588 km
apogee height: 620 km
right ascension of ascending node: 29.8388°
argument of perigee: 320.9873°
revolutions per day: 14.88056085
mean anomaly at epoch: 38.9691°
orbit number at epoch: 58308

The dashed part of the orbit path shows where the satellite is in the earth's shadow,  

DLR